This is the latest recevied weather packets stored in our database for station/object WX8ASH-13. If no packets are shown the sender has not sent any weather packets the latest 1 day(s).
| Time | Temp. | Humidity | Pressure | Rain* | Wind** | Luminosity | Snow |
|---|---|---|---|---|---|---|---|
| 1778048105 | 7.22° C | 99% | 1014.9 hPa | 2.79 mm | 0.45 m/s, 13° | - | - |
| 1778047804 | 7.78° C | 99% | 1014.9 hPa | 2.54 mm | 0.89 m/s, 11° | - | - |
| 1778047506 | 8.33° C | 99% | 1014.9 hPa | 2.54 mm | 3.58 m/s, 8° | - | - |
| 1778047203 | 8.33° C | 99% | 1014.7 hPa | 2.29 mm | 1.79 m/s, 4° | - | - |
| 1778046934 | 8.33° C | 99% | 1014.8 hPa | 2.54 mm | 0.89 m/s, 28° | - | - |
| 1778046634 | 8.33° C | 99% | 1014.8 hPa | 2.54 mm | 1.34 m/s, 25° | - | - |
| 1778046335 | 8.33° C | 99% | 1014.8 hPa | 2.29 mm | 1.79 m/s, 10° | - | - |
| 1778046033 | 8.33° C | 99% | 1014.9 hPa | 2.54 mm | 0.89 m/s, 20° | - | - |
| 1778045738 | 8.33° C | 99% | 1014.9 hPa | 2.29 mm | 1.79 m/s, 15° | - | - |
| 1778045433 | 8.33° C | 99% | 1015 hPa | 2.54 mm | 0.45 m/s, 6° | - | - |
| 1778045133 | 8.33° C | 99% | 1015.1 hPa | 1.52 mm | 0 m/s | - | - |
| 1778044832 | 8.33° C | 99% | 0 hPa | 2.03 mm | 1.79 m/s, 25° | - | - |
| 1778044232 | 8.89° C | 99% | 1008.8 hPa | 1.52 mm | 0 m/s | - | - |
| 1778043932 | 8.89° C | 99% | 1008.9 hPa | 1.52 mm | 0.89 m/s, 44° | - | - |
| 1778043639 | 8.89° C | 99% | 1008.9 hPa | 1.52 mm | 0.89 m/s, 11° | - | - |
| 1778043332 | 8.89° C | 99% | 1008.8 hPa | 1.27 mm | 1.34 m/s, 21° | - | - |
| 1778043031 | 8.89° C | 99% | 1009 hPa | 1.78 mm | 0.45 m/s, 342° | - | - |
| 1778042732 | 8.89° C | 99% | 1008.7 hPa | 1.78 mm | 0 m/s | - | - |
| 1778042437 | 8.89° C | 99% | 1008.8 hPa | 1.78 mm | 0 m/s | - | - |
| 1778042131 | 8.89° C | 99% | 1008.8 hPa | 2.03 mm | 1.34 m/s, 350° | - | - |
| 1778041831 | 8.89° C | 99% | 1008.8 hPa | 1.78 mm | 0.89 m/s, 44° | - | - |
| 1778041536 | 8.89° C | 99% | 1008.8 hPa | 1.78 mm | 1.79 m/s, 58° | - | - |
| 1778041231 | 9.44° C | 99% | 1008.8 hPa | 1.27 mm | 0 m/s | - | - |
| 1778040931 | 8.89° C | 99% | 1008.9 hPa | 1.27 mm | 0 m/s | - | - |
| 1778040636 | 8.89° C | 99% | 1008.9 hPa | 1.02 mm | 0 m/s | - | - |
* Rain latest hour (hover to see other rain measurements)
** Current wind speed in m/s (hover to see current wind gust speed)